GW1238 Weather Reports


Display with metric or nautical units.
time (UTC)temp
F
wind
direction
speed
MPH
gust
MPH
rain 1hr
in
rain 24hr
in
rain mn
in
humidity
%
barometer
mb
20260506191657 68 294 0.0 2.0 0.00 0.84 0.84 98 1016.2
20260506191153 69 196 2.0 3.0 0.05 0.84 0.84 98 1016.7
20260506190650 69 186 4.0 6.0 0.00 0.83 0.83 98 1016.0
20260506190147 69 177 4.0 6.0 0.00 0.83 0.83 98 1015.8
20260506185644 69 188 4.0 6.0 0.00 0.83 0.83 98 1016.3
20260506185140 69 153 3.0 4.0 0.07 0.83 0.83 97 1015.8
20260506184638 69 163 3.0 4.0 0.05 0.82 0.82 97 1015.9
20260506184135 69 170 3.0 6.0 0.12 0.82 0.82 97 1016.6
20260506183631 69 175 6.0 7.0 0.12 0.81 0.81 96 1016.9
20260506183127 69 172 5.0 6.0 0.24 0.80 0.80 96 1016.7
20260506182625 69 190 2.0 4.0 0.50 0.79 0.79 96 1016.7
20260506182122 69 161 1.0 2.0 0.42 0.76 0.76 95 1016.4
20260506181620 69 180 0.0 2.0 0.17 0.71 0.71 94 1017.7
20260506181117 70 274 1.0 2.0 0.12 0.69 0.69 94 1017.3
20260506180613 70 258 1.0 4.0 0.07 0.68 0.68 93 1017.1
20260506180110 70 155 0.0 3.0 0.00 0.67 0.67 93 1017.2
20260506175606 71 187 6.0 8.0 0.00 0.67 0.67 93 1016.9
20260506175102 71 203 6.0 7.0 0.00 0.67 0.67 93 1017.2
20260506174601 71 198 6.0 7.0 0.00 0.67 0.67 92 1017.0
20260506174057 71 187 5.0 6.0 0.00 0.67 0.67 92 1017.1
20260506173555 71 202 5.0 7.0 0.00 0.67 0.67 92 1016.9
20260506173051 71 310 1.0 3.0 0.00 0.67 0.67 93 1017.0
20260506172549 71 196 4.0 6.0 0.00 0.67 0.67 93 1016.6
20260506172040 71 211 3.0 7.0 0.00 0.67 0.67 93 1016.5
20260506171537 70 169 2.0 7.0 0.00 0.67 0.67 93 1016.6
20260506171035 70 201 3.0 4.0 0.00 0.67 0.67 93 1016.6
20260506170532 71 192 5.0 6.0 0.00 0.67 0.67 93 1016.6
20260506170029 70 190 6.0 7.0 0.00 0.67 0.67 93 1016.2
20260506165527 71 191 7.0 9.0 0.00 0.67 0.67 92 1016.3
20260506165023 70 197 5.0 6.0 0.00 0.67 0.67 93 1016.5
20260506164520 70 192 7.0 9.0 0.00 0.67 0.67 93 1016.6
20260506164018 70 178 8.0 9.0 0.00 0.67 0.67 94 1016.1
20260506163513 69 193 6.0 10.0 0.00 0.67 0.67 96 1016.2
20260506163009 69 186 8.0 9.0 0.00 0.67 0.67 96 1016.3
20260506162506 69 189 9.0 10.0 0.00 0.67 0.67 97 1016.4
20260506161957 69 174 9.0 10.0 0.00 0.67 0.67 98 1015.9
20260506161455 68 197 7.0 8.0 0.00 0.67 0.67 98 1016.2
20260506160952 68 187 7.0 10.0 0.00 0.67 0.67 98 1016.2
20260506160450 68 172 8.0 9.0 0.00 0.67 0.67 99 1016.3
20260506155947 68 181 8.0 9.0 0.00 0.67 0.67 99 1016.3
20260506155445 67 190 8.0 10.0 0.00 0.67 0.67 99 1016.3
20260506153616 67 179 7.0 8.0 0.00 0.67 0.67 99 1016.2
20260506153114 67 196 5.0 8.0 0.00 0.67 0.67 99 1016.7
20260506152611 67 188 4.0 4.0 0.00 0.67 0.67 99 1017.1
20260506152108 66 196 2.0 7.0 0.00 0.67 0.67 99 1017.3
20260506151606 66 190 4.0 7.0 0.00 0.67 0.67 99 1017.2
20260506151103 66 195 4.0 6.0 0.00 0.67 0.67 99 1017.2
20260506150600 66 202 4.0 4.0 0.00 0.67 0.67 99 1017.1
20260506150057 66 186 2.0 4.0 0.05 0.67 0.67 99 1017.2
20260506145553 65 149 6.0 7.0 0.05 0.67 0.67 99 1016.4
20260506145051 65 131 6.0 7.0 0.07 0.66 0.66 99 1016.0
20260506144547 66 135 4.0 4.0 0.14 0.66 0.66 99 1017.1
20260506144044 65 146 4.0 6.0 0.07 0.65 0.65 99 1017.4
20260506143542 66 172 4.0 6.0 0.12 0.64 0.64 99 1017.9
20260506143041 65 188 6.0 6.0 0.24 0.64 0.64 99 1017.9
20260506142538 65 177 2.0 3.0 0.35 0.61 0.61 99 1017.9
20260506142036 65 164 0.0 0.0 1.06 0.60 0.60 99 1017.6
20260506141533 65 91 2.0 2.0 1.04 0.55 0.55 99 1017.4
20260506141032 65 208 0.0 2.0 0.42 0.42 0.42 99 1018.5
20260506140529 65 149 0.0 0.0 0.47 0.38 0.38 99 1018.0
20260506140026 65 59 0.0 0.0 0.42 0.34 0.34 99 1018.0
20260506135523 65 232 0.0 0.0 0.31 0.30 0.30 99 1017.9
20260506135019 64 259 0.0 0.0 0.17 0.27 0.27 99 1017.7
20260506134515 64 335 0.0 2.0 0.12 0.25 0.25 99 1017.7
20260506134012 64 290 1.0 2.0 0.19 0.24 0.24 99 1017.5
20260506133509 65 289 2.0 3.0 0.19 0.22 0.22 98 1017.4
20260506133005 65 265 2.0 3.0 0.24 0.21 0.21 98 1017.7
20260506132503 65 338 0.0 2.0 0.24 0.19 0.19 98 1017.2
20260506132000 65 286 1.0 2.0 0.12 0.17 0.17 98 1017.1
20260506131457 65 265 1.0 2.0 0.07 0.15 0.15 97 1017.0
20260506130953 65 281 1.0 3.0 0.12 0.15 0.15 97 1017.1
20260506130450 65 159 0.0 3.0 0.17 0.14 0.14 97 1016.5
20260506125948 65 227 1.0 2.0 0.42 0.13 0.13 97 1016.9
20260506125446 65 174 2.0 7.0 0.40 0.10 0.10 96 1016.7
20260506124944 65 187 0.0 2.0 0.31 0.06 0.06 96 1016.6
20260506124441 65 243 3.0 4.0 0.14 0.03 0.03 96 1016.4
20260506123939 65 176 2.0 3.0 0.00 0.01 0.01 96 1015.8
20260506123437 65 250 0.0 0.0 0.00 0.01 0.01 96 1016.2
20260506122934 65 285 0.0 0.0 0.00 0.01 0.01 96 1015.8
20260506122430 65 274 1.0 2.0 0.00 0.01 0.01 95 1015.9
20260506121929 65 275 1.0 2.0 0.00 0.01 0.01 95 1015.8
20260506121426 65 314 1.0 2.0 0.00 0.01 0.01 95 1015.7
20260506120923 65 282 2.0 2.0 0.00 0.01 0.01 94 1015.8
20260506120420 65 279 2.0 2.0 0.00 0.01 0.01 94 1015.6
20260506115917 65 182 0.0 2.0 0.05 0.01 0.01 93 1015.6
20260506115415 66 225 0.0 1.0 0.05 0.01 0.01 92 1015.6
20260506114913 66 225 0.0 1.0 0.00 0.00 0.00 91 1015.3
20260506114410 66 148 0.0 1.0 0.00 0.00 0.00 90 1015.4
20260506113909 66 219 1.0 1.0 0.00 0.00 0.00 90 1015.5
20260506113406 67 269 0.0 2.0 0.00 0.00 0.00 89 1015.4
20260506112903 67 265 1.0 2.0 0.00 0.00 0.00 89 1015.3
20260506112400 67 171 0.0 4.0 0.00 0.00 0.00 88 1015.3
20260506111857 67 194 2.0 4.0 0.00 0.00 0.00 88 1015.1
20260506111355 67 241 1.0 3.0 0.00 0.00 0.00 88 1015.2
20260506110853 67 163 0.0 2.0 0.00 0.00 0.00 87 1015.3
20260506110350 67 231 2.0 2.0 0.00 0.00 0.00 87 1015.3
20260506105847 68 210 1.0 4.0 0.00 0.00 0.00 86 1015.3
20260506105343 68 201 4.0 4.0 0.00 0.00 0.00 85 1014.8
20260506104841 67 190 1.0 4.0 0.00 0.00 0.00 85 1014.9
20260506104338 68 271 2.0 3.0 0.00 0.00 0.00 85 1014.7
20260506103836 68 169 0.0 7.0 0.00 0.00 0.00 85 1014.9
20260506103333 69 197 3.0 7.0 0.00 0.00 0.00 85 1014.8
20260506102830 68 178 6.0 6.0 0.00 0.00 0.00 84 1014.5
20260506102328 68 190 3.0 4.0 0.00 0.00 0.00 84 1014.4
20260506101825 68 177 5.0 6.0 0.00 0.00 0.00 83 1014.4
20260506101321 68 224 3.0 6.0 0.00 0.00 0.00 82 1014.4
20260506100819 69 313 1.0 3.0 0.00 0.00 0.00 81 1014.8
20260506100317 69 181 3.0 6.0 0.00 0.00 0.00 81 1014.6
20260506095815 69 192 6.0 7.0 0.00 0.00 0.00 81 1014.4
20260506095312 69 192 6.0 8.0 0.00 0.00 0.00 81 1014.4
20260506094809 69 180 8.0 10.0 0.00 0.00 0.00 81 1013.9
20260506094307 69 186 9.0 10.0 0.00 0.00 0.00 81 1014.0
20260506093805 69 177 7.0 9.0 0.00 0.00 0.00 81 1014.2
20260506093302 69 179 7.0 8.0 0.00 0.00 0.00 81 1014.5
20260506092800 69 189 6.0 8.0 0.00 0.00 0.00 80 1014.5
20260506092257 69 199 3.0 7.0 0.00 0.00 0.00 80 1014.4
20260506091754 69 179 5.0 7.0 0.00 0.00 0.00 80 1014.4
20260506091252 69 228 2.0 4.0 0.00 0.00 0.00 78 1014.2
20260506090750 69 184 2.0 4.0 0.00 0.00 0.00 77 1014.5
20260506090246 69 244 3.0 6.0 0.00 0.00 0.00 78 1014.6
20260506085743 69 186 3.0 7.0 0.00 0.00 0.00 78 1014.6
20260506085239 69 224 3.0 6.0 0.00 0.00 0.00 78 1014.5
20260506084736 70 188 6.0 8.0 0.00 0.00 0.00 79 1014.4
20260506084232 69 185 7.0 10.0 0.00 0.00 0.00 77 1014.4
20260506083730 70 187 7.0 10.0 0.00 0.00 0.00 80 1014.1
20260506083228 70 179 10.0 11.0 0.00 0.00 0.00 77 1013.8
20260506082725 70 178 9.0 10.0 0.00 0.00 0.00 78 1013.9
20260506082220 70 188 8.0 10.0 0.00 0.00 0.00 77 1014.1
20260506081718 70 178 9.0 10.0 0.00 0.00 0.00 77 1013.9
20260506081215 70 175 8.0 9.0 0.00 0.00 0.00 78 1014.0
20260506080713 70 180 8.0 9.0 0.00 0.00 0.00 76 1013.7
20260506080209 70 184 8.0 10.0 0.00 0.00 0.00 76 1013.7
20260506073154 70 188 7.0 10.0 0.00 0.00 0.00 74 1013.8
20260506072650 70 174 9.0 10.0 0.00 0.00 0.00 74 1013.9
20260506072148 71 179 8.0 8.0 0.00 0.00 0.00 75 1013.9
20260506071645 70 180 8.0 9.0 0.00 0.00 0.00 74 1013.8
20260506071143 70 184 9.0 10.0 0.00 0.00 0.00 72 1013.7
20260506070640 71 182 9.0 10.0 0.00 0.00 0.00 75 1013.9
20260506070137 71 181 8.0 10.0 0.00 0.00 0.00 72 1013.7
20260506062114 71 182 7.0 8.0 0.00 0.00 0.00 73 1014.5
20260506061610 71 187 7.0 8.0 0.00 0.00 0.00 72 1014.5
20260506061108 71 192 6.0 8.0 0.00 0.00 0.00 72 1014.7
20260506060606 71 183 6.0 9.0 0.00 0.00 0.00 72 1014.7
20260506051034 71 187 4.0 7.0 0.00 0.00 0.00 68 1015.0
20260506050532 71 192 5.0 6.0 0.00 0.00 0.00 68 1015.0
20260506045023 72 195 4.0 4.0 0.00 0.00 0.00 68 1015.1
20260506044521 71 199 3.0 6.0 0.00 0.00 0.00 66 1015.2
20260506044017 72 248 2.0 7.0 0.00 0.00 0.00 66 1015.2
20260506043514 72 196 4.0 6.0 0.00 0.00 0.00 67 1015.3
20260506043013 72 190 5.0 7.0 0.00 0.00 0.00 66 1015.1
20260506042512 72 181 4.0 7.0 0.00 0.00 0.00 67 1015.1
20260506042009 72 186 5.0 7.0 0.00 0.00 0.00 68 1015.2
20260506041508 72 184 5.0 6.0 0.00 0.00 0.00 66 1015.0
20260506041004 72 186 6.0 7.0 0.00 0.00 0.00 65 1015.2
20260506040502 72 181 6.0 7.0 0.00 0.00 0.00 66 1015.2
20260506035957 72 188 5.0 7.0 0.00 0.00 0.00 67 1015.1
20260506035455 72 184 6.0 7.0 0.00 0.00 0.00 66 1015.2
20260506034951 72 188 6.0 9.0 0.00 0.00 0.00 65 1015.1
20260506034449 72 201 5.0 7.0 0.00 0.00 0.00 67 1015.1
20260506033946 72 186 6.0 7.0 0.00 0.00 0.00 63 1015.3
20260506033443 72 188 4.0 6.0 0.00 0.00 0.00 62 1015.5
20260506032939 72 215 2.0 6.0 0.00 0.00 0.00 63 1015.8
20260506032437 72 189 3.0 6.0 0.00 0.00 0.00 65 1015.5
20260506031933 73 180 6.0 7.0 0.00 0.00 0.00 68 1015.6
20260506031431 73 217 5.0 7.0 0.00 0.00 0.00 66 1015.3
20260506030929 73 199 5.0 7.0 0.00 0.00 0.00 64 1015.5
20260506030426 73 175 6.0 7.0 0.00 0.00 0.00 64 1015.2
20260506025923 73 184 4.0 4.0 0.00 0.00 0.00 65 1015.3
20260506025420 73 191 5.0 6.0 0.00 0.00 0.00 66 1015.6
20260506024916 73 233 1.0 4.0 0.00 0.00 0.00 60 1015.9
20260506024414 73 199 4.0 6.0 0.00 0.00 0.00 60 1015.8
20260506023909 73 201 4.0 6.0 0.00 0.00 0.00 60 1015.8
20260506023407 73 194 5.0 7.0 0.00 0.00 0.00 60 1015.8
20260506022903 73 192 2.0 7.0 0.00 0.00 0.00 61 1015.6
20260506022401 73 189 6.0 7.0 0.00 0.00 0.00 61 1015.1
20260506021859 72 197 7.0 8.0 0.00 0.00 0.00 62 1015.1
20260506021355 73 199 5.0 7.0 0.00 0.00 0.00 64 1015.0
20260506020852 72 203 3.0 7.0 0.00 0.00 0.00 61 1015.0
20260506020350 72 203 4.0 4.0 0.00 0.00 0.00 62 1015.1
20260506015847 72 187 6.0 7.0 0.00 0.00 0.00 61 1014.8
20260506015345 72 215 4.0 7.0 0.00 0.00 0.00 62 1014.9
20260506014841 72 187 6.0 7.0 0.00 0.00 0.00 62 1015.0
20260506014338 72 214 2.0 6.0 0.00 0.00 0.00 63 1014.8
20260506013835 72 201 3.0 6.0 0.00 0.00 0.00 63 1014.8
20260506013332 73 192 4.0 7.0 0.00 0.00 0.00 66 1014.7
20260506012829 73 184 5.0 6.0 0.00 0.00 0.00 66 1014.9
20260506012326 73 186 5.0 7.0 0.00 0.00 0.00 62 1014.8
20260506011823 73 186 5.0 7.0 0.00 0.00 0.00 62 1014.7
20260506011319 73 193 4.0 7.0 0.00 0.00 0.00 61 1014.6
20260506010817 73 197 4.0 8.0 0.00 0.00 0.00 64 1014.6
20260506010315 73 187 6.0 7.0 0.00 0.00 0.00 64 1014.7
20260506005811 73 188 6.0 8.0 0.00 0.00 0.00 65 1014.4
20260506005308 73 179 7.0 8.0 0.00 0.00 0.00 61 1014.5
20260506004805 73 182 6.0 9.0 0.00 0.00 0.00 62 1014.4
20260506004302 73 177 7.0 7.0 0.00 0.00 0.00 63 1014.4
20260506003758 73 176 6.0 7.0 0.00 0.00 0.00 62 1014.5
20260506003254 73 182 5.0 6.0 0.00 0.00 0.00 61 1014.5
20260506002751 73 182 4.0 4.0 0.00 0.00 0.00 66 1014.4
20260506002247 73 188 4.0 6.0 0.00 0.00 0.00 64 1014.6
20260506001743 73 193 2.0 6.0 0.00 0.00 0.00 60 1014.9
20260506001241 73 198 4.0 4.0 0.00 0.00 0.00 60 1014.7
20260506000737 72 206 1.0 4.0 0.00 0.00 0.00 57 1015.1
20260506000235 71 198 0.0 2.0 0.00 0.00 0.00 60 1014.9
20260505235732 71 180 1.0 2.0 0.00 0.00 0.00 62 1014.9
20260505235230 71 301 0.0 1.0 0.00 0.00 0.00 62 1014.9
20260505234726 71 338 0.0 3.0 0.00 0.00 0.00 62 1014.8
20260505234224 71 219 0.0 1.0 0.00 0.00 0.00 64 1014.8
20260505233720 72 16 0.0 1.0 0.00 0.00 0.00 60 1014.7
20260505233218 72 162 0.0 3.0 0.00 0.00 0.00 61 1015.0
20260505232715 73 267 1.0 2.0 0.00 0.00 0.00 60 1014.8
20260505232212 72 171 0.0 1.0 0.00 0.00 0.00 58 1014.9
20260505231709 73 324 0.0 1.0 0.00 0.00 0.00 59 1014.8
20260505231208 73 194 0.0 4.0 0.00 0.00 0.00 57 1014.8
20260505230706 73 195 4.0 6.0 0.00 0.00 0.00 56 1015.0
20260505230202 73 203 3.0 6.0 0.00 0.00 0.00 56 1014.8
20260505225658 73 187 1.0 3.0 0.00 0.00 0.00 60 1014.8
20260505225155 73 193 3.0 4.0 0.00 0.00 0.00 60 1014.6
20260505224651 73 187 5.0 6.0 0.00 0.00 0.00 63 1014.4
20260505224149 73 194 3.0 4.0 0.00 0.00 0.00 56 1014.6
20260505223646 72 195 0.0 4.0 0.00 0.00 0.00 57 1015.0
20260505223142 73 100 0.0 2.0 0.00 0.00 0.00 59 1014.9
20260505222638 73 221 1.0 3.0 0.00 0.00 0.00 58 1015.0
20260505222135 73 192 3.0 4.0 0.00 0.00 0.00 56 1014.8
20260505221632 73 208 3.0 4.0 0.00 0.00 0.00 57 1014.8
20260505221128 73 200 4.0 4.0 0.00 0.00 0.00 52 1015.0
20260505220626 74 179 4.0 4.0 0.00 0.00 0.00 56 1015.2
20260505220123 74 189 5.0 7.0 0.00 0.00 0.00 57 1014.9
20260505215621 74 189 6.0 8.0 0.00 0.00 0.00 58 1014.8
20260505215119 74 172 5.0 9.0 0.00 0.00 0.00 47 1015.0
20260505214617 74 173 5.0 7.0 0.00 0.00 0.00 56 1014.8
20260505214113 74 179 5.0 8.0 0.00 0.00 0.00 60 1014.9
20260505213611 74 185 6.0 9.0 0.00 0.00 0.00 57 1014.8
20260505213107 74 178 6.0 8.0 0.00 0.00 0.00 60 1015.0
20260505212603 74 192 8.0 11.0 0.00 0.00 0.00 57 1015.2
20260505212102 74 180 9.0 11.0 0.00 0.00 0.00 56 1015.3
20260505211558 75 204 9.0 10.0 0.00 0.00 0.00 55 1015.0
20260505211055 75 175 9.0 11.0 0.00 0.00 0.00 54 1015.4
20260505210552 75 192 6.0 10.0 0.00 0.00 0.00 56 1015.6
20260505210049 76 191 10.0 10.0 0.00 0.00 0.00 58 1015.4
20260505205546 76 176 11.0 13.0 0.00 0.00 0.00 55 1015.5
20260505205044 76 177 8.0 11.0 0.00 0.00 0.00 52 1015.1
20260505204541 76 180 10.0 14.0 0.00 0.00 0.00 49 1015.2
20260505204038 76 174 10.0 14.0 0.00 0.00 0.00 49 1015.2
20260505203535 76 181 11.0 11.0 0.00 0.00 0.00 51 1015.4
20260505203032 76 179 9.0 9.0 0.00 0.00 0.00 55 1015.5
20260505202528 76 177 8.0 14.0 0.00 0.00 0.00 56 1015.6
20260505202024 76 243 5.0 8.0 0.00 0.00 0.00 53 1015.5
20260505201521 76 191 6.0 13.0 0.00 0.00 0.00 55 1015.6
20260505201018 76 187 10.0 13.0 0.00 0.00 0.00 57 1015.8
20260505200517 76 200 11.0 13.0 0.00 0.00 0.00 55 1016.0
20260505200013 76 190 5.0 9.0 0.00 0.00 0.00 51 1015.9
20260505195509 76 188 13.0 15.0 0.00 0.00 0.00 55 1015.9
20260505195007 77 169 9.0 14.0 0.00 0.00 0.00 52 1015.9
20260505194504 76 185 9.0 14.0 0.00 0.00 0.00 55 1015.8
20260505194004 76 185 11.0 14.0 0.00 0.00 0.00 53 1015.9
20260505193502 76 185 10.0 11.0 0.00 0.00 0.00 54 1016.3
20260505192959 76 188 13.0 15.0 0.00 0.00 0.00 52 1016.3
20260505192457 77 171 12.0 15.0 0.00 0.00 0.00 50 1016.3
20260505191954 76 232 4.0 9.0 0.00 0.00 0.00 50 1016.3